Timeline UpdatesTrip UpdatesNews PostsPvt Posts♥♥Travel TipsAdmin PostsConv PostsFollowed PostsChat RequestsBlog PostsPNR Posts

Disclaimer
Search
 
 
Thu Oct 30, 2014 18:26:55 ISTHomeTrainsΣChainsAtlasPNRForumGalleryNewsFAQTripsMembersLoginFeedback
No Recent News for this Train
Other Trains in the News **new
Latest...
...
Sun Aug 10, 2014 (10:19PM)
⇐ Return Journey: Train# 57135

57136/Kazipet-Ajni Passenger (UnReserved)

Time-Table HAS CHANGED.
Sep 04 2014 (4:17AM)
Change Departure Station:
Change Arrival Station:
Post a Train Travel TipPost a Train Travel Tip **new
Post a Comment/Question/Picture/VideoPost a Comment/Question/Picture/Video
Pantry/Catering
✕ NO Pantry Car
✕ NO Catering
RSA - Rake Sharing
Rake/Coach Composition
Loco
AJNI/KZJ WAG 7
News    PNR    Forum    Time-Table    Availability    Fare Chart    Map    Arr/Dep History    Trips    Gallery    ΣChains    X/O    Timeline    
Travel Time: 7h 44m    28 halts    Distance: 272 km    Avg Speed: 35 km/hr
Type: Passenger
Zone: SCR/South Central
Departs @ 21:15 (Avg 9m late)
Platform# 3
SMTWTFS
Kazipet Junction/KZJ 
Arrives @ 04:59 +1 night (Avg 1h 54m late)
Platform# ???
SMTWTFS
Bhandak/BUX 

28 halts. 38 intermediate Stations between Kazipet Junction and Bhandak

Show ALL intermediate Stations  Show Old Time-Table

#TrkCodeStation NameX/OArrivesAvgDepartsAvgHaltPFDay#KmSpeedElevZoneAddress
1/==/KZJKazipet Junction (3)»  -21:15+9310.051292mSCRWarangal Dist., Telangana
2/==/HSPHasanparthi Road (3)  21:29+3721:30+381m1111.979262mSCRWarangal Dist., Telangana
3/==/OPLUppal (2)X  21:39+4021:40+421m2123.779251mSCRKarimnagar Dist., Telangana
4/==/JMKTJamikunta (2)X  21:49+4121:50+431m1135.697236mSCRKarimnagar Dist., Telangana
5/==/BGSFBisugir Sharif (2)X  21:54+5321:55+531m2142.170227mSCRKarimnagar Dist., Telangana
6/==/PTKPPotkapalli (2)X  22:04+5622:05+1:041m--152.662219mSCRKarimnagar Dist., Telangana
7/==/OEAOdela (2)X  22:09-22:10-1m--156.731231mSCRKarimnagar Dist., Telangana
8/==/KOLRKolanoor (2)  22:19+5622:20+1:011m--161.3-223mSCRKarimnagar Dist., Telangana
9/==/KYOPKottapally  22:22-22:25-3m--166.557212mSCRKottapalli. Karimnagar Dist., Telangana
10/==/PDPLPeddapalli Junction (2)  22:34+4722:35+481m1175.152228mSCRKarimnagar Dist., Telangana
11/==/RGPMRaghavapuram (2)  22:44+1:0722:45+1:081m--182.842216mSCRKarimnagar Dist., Telangana
12/==/RDMRamagundam (3)  22:59+4623:00+491m1192.631170mSCRKarimnagar Dist. Ph : 08728 - 255237, Telangana
13/==/PPZPeddampet (2)  23:09+1:1423:10+1:161m2197.360155mSCRKarimnagar Dist., Telangana
14/==/MCIManchiryal (3)X  23:19+3923:20+431m11106.344159mSCRAdilabad Dist., Telangana
15/==/RVKHRavindrakhani (2)  23:29-23:30-1m21112.925169mSCRAdilabad Dist., Telangana
16/==/MMZMandamari (4)  23:39+1:2323:40+1:291m11116.724176mSCRAdilabad Dist., Telangana
17/==/BPABellampalli (3)X  00:04+5900:05+1:041m12126.269205mSCRTel:.08735 223298, Telangana
18/==/RECHRechni Road (2)X  00:14+1:2200:15+1:241m22136.592250mSCRAdilabad Dist., Telangana
19/==/ASAFAsifabad Road (2)  00:24+1:2100:25+1:281m12150.434210mSCRAdilabad Dist., Telangana
20/==/SKZRSirpur Kaghaznagar (3)  00:50+1:1700:55+1:435m12164.745181mSCRAdilabad Dist., Telangana
21/==/SRURSirpur Town (2)  01:19+2:1801:20+2:331m22182.676187mSCRAdilabad Dist., Telangana
22/==/MKDIMakudi (2)  01:29+2:3901:30+2:401m22194.086179mSCRMakudi, Maharashtra
23/==/WIRRWirurX  01:39+2:2701:40+2:281m--2206.930182mSCRChandrapur, Maharashtra
24/==/VHGNWihirgaon (2)X  01:59+2:2002:00+2:201m22216.318193mSCRPIN - 442905, Maharashtra
25/==/MAGHManikgarh (2)X  02:29+1:1902:30+1:221m12224.98184mSCRRajura Taluk, Maharashtra
26/==/BPQBalharshah Junction (5)XO  03:40+1:0104:10 04:00+1:0730 20m--2234.437188mCRBallarpur. Ph : 07172 - 240341, Maharashtra
27/==/BUPHBabupeth (2)  04:15+1:2704:16+1:401m--2243.738196mCRChandrapur, Maharashtra
28/==/CDChandrapur Maharashtra (3)  04:23+1:1404:24+1:151m--2248.238194mCRChandrapur 442401, Maharashtra
29/==/TAETadaliXO  04:47+1:5304:48+1:561m--2262.952207mCRTadali, Maharashtra
30/==/BUXBhandak (5)•  04:59+1:5405:00+1:581m--2272.565207mCRChandrapur, Maharashtra
31/==/MJRIMajri Junction (3)O  05:09+2:0005:10+2:031m--2282.253198mCRDist. Chandrapur, Maharashtra
32/==/WRRWarora (2)  05:24+1:4105:25+1:421m--2294.670214mCRWarora, Maharashtra
33/==/CKNIChikni Road (2)  05:34+2:0805:35+2:091m--2305.150211mCRChandrapur, Maharashtra
34/==/HGTHinganghat (3)X  06:09+2:0406:10+2:081m--2333.752228mCRHinganghat, Maharashtra
35/==/WGWagholi (2)XO  06:19+2:1806:20+2:181m--2341.556238mCRWagholi, Maharashtra
36/==/SNNSonegaon (2)XO  06:29+2:1906:30+2:301m--2349.943262mCRWardha, Maharashtra
37/==/BPKBhugaon (3)X  06:39+2:2906:40+2:371m--2356.447267mCRWardha, Maharashtra
38/==/CHJCChitoda  06:49+2:3606:50+2:361m--2363.524265mCRChitoda, Maharashtra
39/==/SEGMSewagram Junction (5)  06:58+2:1107:00+2:162m--2366.869279mCRWardha, Maharashtra
40/==/VADRWarudX  07:03-07:07-4m--2370.267261mCRSewagram, Maharashtra
41/==/SLORSeloo RoadX  07:14+2:5207:15+3:021m--2378.143256mCRMSH3, Maharashtra
42/==/TGPTuljapur (2)O  07:29+3:0307:30+3:131m--2388.120259mCRTuljapur, Maharashtra
43/==/SNISindi (2)X  07:54+3:0007:55+3:011m--2396.177258mCRWardha, Maharashtra
44/==/BOKBorkhedi  08:04+3:0108:05+3:131m--2407.634268mCRWardha, Maharashtra
45/==/BTBRButi Bori (4)  08:19+3:1008:20+3:111m--2415.458269mCRButi Bori, Maharashtra
46/==/GMGGumgaon (2)X  08:29+3:1308:30+3:141m--2424.144302mCRNagpur, Maharashtra
47/==/KRIKhapri (2)  08:39+3:1508:40+3:151m--2430.73312mCRNagpur, Maharashtra
48/==/AJNIAjni (3)  11:25+49---2440.0-310mCRNagpur 440003, Maharashtra
Scroll to Top
Scroll to Bottom